Stündliche Wetter Otjozondjupa

Heute, 14 April, Mittwoch

Zeit Temperatur Niederschläge Wind Luftdruck Luftfeuchtigkeit
00:00 +18°C° 0 mm 3 m/S 655 mmHg 43%
01:00 +17°C° 0 mm 3 m/S 655 mmHg 43%
02:00 +16°C° 0 mm 2 m/S 655 mmHg 44%
03:00 +15°C° 0 mm 2 m/S 655 mmHg 45%
04:00 +14°C° 0 mm 1 m/S 654 mmHg 46%
05:00 +15°C° 0 mm 1 m/S 655 mmHg 45%
06:00 +16°C° 0 mm 1 m/S 655 mmHg 45%
07:00 +16°C° 0 mm 2 m/S 656 mmHg 44%
08:00 +19°C° 0 mm 4 m/S 657 mmHg 38%
09:00 +22°C° 0 mm 5 m/S 657 mmHg 33%
10:00 +26°C° 0 mm 7 m/S 658 mmHg 28%
11:00 +27°C° 0 mm 7 m/S 657 mmHg 25%
12:00 +28°C° 0 mm 7 m/S 656 mmHg 22%
13:00 +30°C° 0 mm 6 m/S 656 mmHg 20%
14:00 +29°C° 0 mm 6 m/S 655 mmHg 19%
15:00 +29°C° 0 mm 6 m/S 655 mmHg 19%
16:00 +29°C° 0 mm 6 m/S 655 mmHg 19%
17:00 +27°C° 0 mm 5 m/S 654 mmHg 22%
18:00 +23°C° 0 mm 4 m/S 654 mmHg 26%
19:00 +21°C° 0 mm 3 m/S 654 mmHg 30%
20:00 +20°C° 0 mm 3 m/S 654 mmHg 31%
21:00 +19°C° 0 mm 3 m/S 654 mmHg 32%
22:00 +18°C° 0 mm 3 m/S 655 mmHg 34%
23:00 +17°C° 0 mm 2 m/S 654 mmHg 35%

Morgen, 15 April, Donnerstag

Zeit Temperatur Niederschläge Wind Luftdruck Luftfeuchtigkeit
00:00 +16°C° 0 mm 2 m/S 654 mmHg 37%
01:00 +16°C° 0 mm 1 m/S 654 mmHg 39%
02:00 +15°C° 0 mm 1 m/S 653 mmHg 40%
03:00 +15°C° 0 mm 1 m/S 653 mmHg 41%
04:00 +15°C° 0 mm 1 m/S 653 mmHg 42%
05:00 +16°C° 0 mm 1 m/S 654 mmHg 41%
06:00 +18°C° 0 mm 1 m/S 654 mmHg 41%
07:00 +16°C° 0 mm 0 m/S 655 mmHg 41%
08:00 +20°C° 0 mm 2 m/S 655 mmHg 35%
09:00 +24°C° 0 mm 3 m/S 656 mmHg 29%
10:00 +27°C° 0 mm 5 m/S 657 mmHg 24%
11:00 +28°C° 0 mm 5 m/S 656 mmHg 22%
12:00 +30°C° 0 mm 5 m/S 655 mmHg 21%
13:00 +32°C° 0 mm 6 m/S 655 mmHg 19%
14:00 +32°C° 0 mm 5 m/S 654 mmHg 19%
15:00 +30°C° 0 mm 5 m/S 654 mmHg 19%
16:00 +30°C° 0 mm 5 m/S 654 mmHg 19%
17:00 +28°C° 0 mm 4 m/S 654 mmHg 22%
18:00 +26°C° 0 mm 3 m/S 653 mmHg 25%
19:00 +24°C° 0 mm 2 m/S 653 mmHg 27%
20:00 +23°C° 0 mm 2 m/S 654 mmHg 28%
21:00 +21°C° 0 mm 2 m/S 654 mmHg 29%
22:00 +21°C° 0 mm 2 m/S 654 mmHg 30%
23:00 +20°C° 0 mm 2 m/S 654 mmHg 31%

übermorgen, 16 April, Freitag

Zeit Temperatur Niederschläge Wind Luftdruck Luftfeuchtigkeit
00:00 +20°C° 0 mm 1 m/S 653 mmHg 33%
01:00 +19°C° 0 mm 1 m/S 653 mmHg 35%
02:00 +18°C° 0 mm 1 m/S 653 mmHg 35%
03:00 +17°C° 0 mm 2 m/S 653 mmHg 35%
04:00 +16°C° 0 mm 2 m/S 653 mmHg 36%
05:00 +17°C° 0 mm 2 m/S 653 mmHg 36%
06:00 +17°C° 0 mm 2 m/S 654 mmHg 36%
07:00 +19°C° 0 mm 1 m/S 654 mmHg 36%
08:00 +20°C° 0 mm 2 m/S 655 mmHg 31%
09:00 +24°C° 0 mm 3 m/S 656 mmHg 27%
10:00 +27°C° 0 mm 4 m/S 656 mmHg 23%
11:00 +28°C° 0 mm 5 m/S 656 mmHg 21%
12:00 +30°C° 0 mm 5 m/S 655 mmHg 19%
13:00 +32°C° 0 mm 6 m/S 655 mmHg 18%
14:00 +32°C° 0 mm 5 m/S 654 mmHg 18%
15:00 +30°C° 0 mm 5 m/S 654 mmHg 18%
16:00 +30°C° 0 mm 4 m/S 653 mmHg 19%
17:00 +28°C° 0 mm 4 m/S 653 mmHg 21%
18:00 +27°C° 0 mm 4 m/S 653 mmHg 23%
19:00 +25°C° 0 mm 3 m/S 653 mmHg 26%
20:00 +25°C° 0 mm 3 m/S 653 mmHg 27%
21:00 +24°C° 0 mm 2 m/S 653 mmHg 27%
22:00 +24°C° 0 mm 2 m/S 653 mmHg 28%
23:00 +22°C° 0 mm 1 m/S 653 mmHg 31%

17 April, Samstag

Zeit Temperatur Niederschläge Wind Luftdruck Luftfeuchtigkeit
00:00 +21°C° 0 mm 1 m/S 653 mmHg 34%
01:00 +19°C° 0 mm 1 m/S 652 mmHg 37%
02:00 +19°C° 0 mm 1 m/S 652 mmHg 38%
03:00 +18°C° 0 mm 1 m/S 652 mmHg 40%
04:00 +16°C° 0 mm 1 m/S 652 mmHg 41%
05:00 +18°C° 0 mm 1 m/S 653 mmHg 41%
06:00 +18°C° 0 mm 1 m/S 653 mmHg 41%
07:00 +18°C° 0 mm 1 m/S 654 mmHg 41%
08:00 +20°C° 0 mm 3 m/S 655 mmHg 35%
09:00 +23°C° 0 mm 4 m/S 655 mmHg 30%
10:00 +27°C° 0 mm 5 m/S 656 mmHg 24%
11:00 +28°C° 0 mm 6 m/S 655 mmHg 22%
12:00 +29°C° 0 mm 6 m/S 655 mmHg 20%
13:00 +30°C° 0 mm 6 m/S 655 mmHg 17%
14:00 +30°C° 0 mm 6 m/S 654 mmHg 18%
15:00 +30°C° 0 mm 5 m/S 654 mmHg 18%
16:00 +30°C° 0 mm 5 m/S 654 mmHg 18%
17:00 +27°C° 0 mm 4 m/S 654 mmHg 22%
18:00 +25°C° 0 mm 3 m/S 654 mmHg 26%
19:00 +22°C° 0 mm 3 m/S 653 mmHg 30%
20:00 +21°C° 0 mm 3 m/S 654 mmHg 35%
21:00 +21°C° 0 mm 4 m/S 654 mmHg 39%
22:00 +20°C° 0 mm 5 m/S 654 mmHg 44%
23:00 +20°C° 0 mm 5 m/S 654 mmHg 48%

18 April, Sonntag

Zeit Temperatur Niederschläge Wind Luftdruck Luftfeuchtigkeit
00:00 +19°C° 0 mm 5 m/S 654 mmHg 52%
01:00 +19°C° 0 mm 5 m/S 654 mmHg 56%
02:00 +19°C° 0 mm 4 m/S 654 mmHg 58%
03:00 +18°C° 0 mm 4 m/S 654 mmHg 60%
04:00 +18°C° 0 mm 4 m/S 654 mmHg 61%
05:00 +18°C° 0.1 mm 3 m/S 654 mmHg 62%
06:00 +18°C° 0.1 mm 2 m/S 655 mmHg 62%
07:00 +18°C° 0.1 mm 2 m/S 655 mmHg 63%
08:00 +20°C° 0.1 mm 3 m/S 656 mmHg 56%
09:00 +21°C° 0.1 mm 3 m/S 657 mmHg 50%
10:00 +23°C° 0.1 mm 4 m/S 657 mmHg 44%
11:00 +25°C° 0 mm 5 m/S 657 mmHg 41%
12:00 +26°C° 0 mm 5 m/S 656 mmHg 38%
13:00 +27°C° 0 mm 5 m/S 656 mmHg 35%
14:00 +26°C° 0 mm 5 m/S 655 mmHg 40%
15:00 +25°C° 0 mm 4 m/S 655 mmHg 45%
16:00 +22°C° 0 mm 4 m/S 655 mmHg 50%
17:00 +21°C° 0.6 mm 4 m/S 655 mmHg 60%
18:00 +19°C° 0.6 mm 4 m/S 655 mmHg 71%
19:00 +17°C° 0.6 mm 4 m/S 655 mmHg 82%
20:00 +17°C° 0.2 mm 4 m/S 655 mmHg 81%
21:00 +17°C° 0.2 mm 3 m/S 656 mmHg 80%
22:00 +17°C° 0.2 mm 2 m/S 656 mmHg 79%
23:00 +17°C° 0.2 mm 3 m/S 656 mmHg 79%

19 April, Montag

Zeit Temperatur Niederschläge Wind Luftdruck Luftfeuchtigkeit
00:00 +17°C° 0.2 mm 4 m/S 655 mmHg 79%
01:00 +16°C° 0.2 mm 5 m/S 655 mmHg 79%
02:00 +17°C° 0.1 mm 4 m/S 655 mmHg 77%
03:00 +17°C° 0.1 mm 3 m/S 655 mmHg 76%
04:00 +17°C° 0.1 mm 2 m/S 655 mmHg 75%
05:00 +17°C° 0 mm 2 m/S 655 mmHg 75%
06:00 +17°C° 0 mm 2 m/S 655 mmHg 74%
07:00 +17°C° 0 mm 2 m/S 655 mmHg 74%
08:00 +19°C° 0 mm 2 m/S 656 mmHg 64%
09:00 +21°C° 0 mm 3 m/S 656 mmHg 54%
10:00 +23°C° 0 mm 4 m/S 657 mmHg 44%
11:00 +25°C° 0 mm 4 m/S 657 mmHg 40%
12:00 +27°C° 0 mm 4 m/S 656 mmHg 35%
13:00 +28°C° 0 mm 4 m/S 656 mmHg 30%
14:00 +28°C° 0 mm 4 m/S 655 mmHg 31%
15:00 +27°C° 0 mm 4 m/S 655 mmHg 31%
16:00 +27°C° 0 mm 4 m/S 655 mmHg 32%
17:00 +26°C° 0 mm 3 m/S 655 mmHg 34%
18:00 +25°C° 0 mm 2 m/S 655 mmHg 36%
19:00 +24°C° 0 mm 2 m/S 655 mmHg 38%
20:00 +23°C° 0 mm 2 m/S 655 mmHg 39%
21:00 +21°C° 0 mm 2 m/S 655 mmHg 41%
22:00 +21°C° 0 mm 1 m/S 655 mmHg 42%
23:00 +20°C° 0 mm 1 m/S 655 mmHg 44%
Mehr zeigen

Wir brauchen deine Erlaubnis

Meteoprog und unser Service Anbieter werden persönliche Daten aufbewahren, so wie Cookies, Geräte Bezeichnung oder ähnliche Technologien von deinem Gerät und Prozess, so wie Persönliche Daten Inhalte und Werbungen, genauso wie social Media und den Verkehr zu analysieren.

  • Aufbewahrung und/oder Zugang zu deiner Geräte Informationen.

    Cookies, Geräte Bezeichnung oder andere Informationen, können aufbewahrt oder Zugang zu deinem Gerät erhalten, für den Grund, der oben angegeben wird.

  • Personalisierte Werbung und Inhalte, Messungen, Einblick in das Publikum und Produkt Entwicklung.

    Werbungen und Inhalte können personalisiert werden, basierend auf ein Profil. Mehr Daten können besser personalisierte Werbungen und Inhalte hinzufügen. Werbung und Inhalte können gezeigt und gemessen werden. Einblicke über das Publikum, welche die Werbung gesehen haben und den Inhalt, können abgeleitet werden. So wie Daten können genutzt werden, um es zu verbessern oder die Benutzer Erfahrung zu verbessern das System und die Software.

Wenn du “Ich stimme zu” klickst, erlaubst du uns, die Cookies zu benutzen die Geräte Bezeichnung, den Web oder ähnliche Technologien zu benutzen. Deine Settings, können in deinem Gerät bei deinem Browser geändert werden.

Für den bestimmten Zweck, berechtigten Interessen beruhen darauf, mehr als auf den Inhalt. Du kannst mehr darüber in unseren Privaten und Cookie Politik lesen.